Tracking 34138 objects as of 17-May-2026
HD Live streaming from Space Station
objects crossing your sky now

STARLINK-32828

Track STARLINK-32828 now!
10-day predictions
STARLINK-32828 is classified as:


NORAD ID: 63045
Int'l Code: 2025-034S
Perigee: 481.4 km
Apogee: 483.3 km
Inclination: 53.2 °
Period: 94.1 minutes
Semi major axis: 6853 km
RCS: Unknown
Launch date: February 18, 2025
Source: United States (US)
Launch site: AIR FORCE EASTERN TEST RANGE (AFETR)
Your satellite tracking list
Your tracking list is empty




NASA's NSSDC Master Catalog

Two Line Element Set (TLE):
1 63045U 25034S   26136.79672733  .00008258  00000-0  29050-3 0  9996
2 63045  53.1602 314.5984 0001386 295.1560  64.9297 15.30214785 69331
Source of the keplerian elements: AFSPC